{"data":{"norad_id":65572,"intl_designator":"2025-203H","name":"PRAETORIAN SDA_609","alt_names":[],"object_type":"PAYLOAD","status":"ACTIVE","operator":null,"country":"US","launch_date":"2025-09-10","launch_site_code":"AFWTR","launch_vehicle":null,"mission":null,"orbit_class":"UNKNOWN","rcs_meters":null,"size_class":null,"mass_kg":null,"dimensions":null,"purposes":["military"],"wikipedia_slug":null,"has_3d_model":false,"image_url":null,"decayed_at":null,"tle_current":{"epoch":"2026-09-19T23:42:41.199840Z","epoch_age_seconds":58607,"freshness":"FRESH","line1":"1 65572U 25203H   26262.98797685  .00000165  00000+0  13776-3 0  9992","line2":"2 65572  81.3014 283.0150 0005843 300.7031  59.3549 13.84216437 51816","mean_motion":13.84216437,"eccentricity":0.0005843,"inclination_deg":81.3014,"raan_deg":283.015,"arg_perigee_deg":300.7031,"mean_anomaly_deg":59.3549,"bstar":0.00013776,"rev_number":5181,"period_min":104.02997403505,"perigee_km":944.68831498473,"apogee_km":953.25077169127,"semimajor_km":7327.106543338,"source":"CELESTRAK","updated_at":"2026-09-20T09:00:47.715732Z"}}}